User: anonymous   Login
Location: Unspecified
(0.0000°N, 0.0000°E)
Time: 18:00:33
(UTC+00:00)
Language:

STARLINK-3561 - Orbit

View from above orbital plane
View from above orbital plane
View from above satellite
View from above satellite

Ground track
Ground track

The orbit is defined by the following mean orbital elements,

1 52284U          26145.21644644 +.00000000 +00000-0 -85120-4 0 00004
2 52284  53.2138 115.5751 0001311  68.2170 291.8961 15.08847171    08
Epoch (UTC): 25 May 2026 05:11:40
Eccentricity: 0.0001311
inclination: 53.2138°
perigee height: 539 km
apogee height: 541 km
right ascension of ascending node: 115.5751°
argument of perigee: 68.2170°
revolutions per day: 15.08847171
mean anomaly at epoch: 291.8961°

The dashed part of the orbit path shows where the satellite is in the earth's shadow,  

DLR